SJV131 WADD-WAHS

Flight info

Callsign SJV131
Flight time 1h 8m
Altitude 32000
Route OKANG T4 WAWAN
Aircraft A320/M-SDE3FGHIRWY/LB1

Departure

Time 2026-05-07 06:35
Airport Denpasar I Gusti Ngurah Rai International Airport (WADD)

Arrival

Time 2026-05-07 07:43
Airport Jenderal Ahmad Yani Airport (WAHS)
Time Latitude Longitude Altitude Speed Heading
2026-05-07 06:18 -8.74563 115.16406 33 ft 0 kts 358°
2026-05-07 06:27 -8.74573 115.16407 33 ft 2 kts 356°
2026-05-07 06:27 -8.74589 115.16407 30 ft 2 kts 356°
2026-05-07 06:28 -8.74605 115.16408 30 ft 2 kts 356°
2026-05-07 06:28 -8.74622 115.16409 31 ft 2 kts 355°
2026-05-07 06:28 -8.74638 115.16411 32 ft 2 kts 354°
2026-05-07 06:28 -8.74655 115.16413 29 ft 2 kts 351°
2026-05-07 06:29 -8.74671 115.16416 31 ft 2 kts 344°
2026-05-07 06:29 -8.74687 115.16421 29 ft 2 kts 307°
2026-05-07 06:29 -8.74692 115.16432 30 ft 1 kts 267°
2026-05-07 06:29 -8.74692 115.16434 30 ft 0 kts 267°
2026-05-07 06:30 -8.74692 115.16432 30 ft 1 kts 267°
2026-05-07 06:30 -8.74693 115.16414 31 ft 3 kts 267°
2026-05-07 06:31 -8.74694 115.16373 32 ft 8 kts 268°
2026-05-07 06:31 -8.74697 115.16300 33 ft 13 kts 268°
2026-05-07 06:31 -8.74701 115.16199 33 ft 16 kts 267°
2026-05-07 06:31 -8.74705 115.16085 33 ft 17 kts 268°
2026-05-07 06:32 -8.74710 115.15963 33 ft 18 kts 267°
2026-05-07 06:32 -8.74716 115.15831 32 ft 20 kts 267°
2026-05-07 06:32 -8.74721 115.15689 32 ft 21 kts 268°
2026-05-07 06:32 -8.74728 115.15537 32 ft 22 kts 268°
2026-05-07 06:33 -8.74734 115.15427 32 ft 8 kts 255°
2026-05-07 06:33 -8.74783 115.15391 31 ft 11 kts 182°
2026-05-07 06:33 -8.74869 115.15392 28 ft 8 kts 178°
2026-05-07 06:33 -8.74896 115.15411 28 ft 5 kts 109°
2026-05-07 06:34 -8.74895 115.15454 29 ft 7 kts 88°
2026-05-07 06:34 -8.74891 115.15564 29 ft 38 kts 88°
2026-05-07 06:34 -8.74871 115.16051 29 ft 98 kts 88°
2026-05-07 06:34 -8.74836 115.16902 28 ft 142 kts 88°
2026-05-07 06:35 -8.74788 115.17997 305 ft 160 kts 88°
2026-05-07 06:35 -8.74742 115.19126 964 ft 163 kts 90°
2026-05-07 06:35 -8.74694 115.20294 1543 ft 168 kts 91°
2026-05-07 06:35 -8.74650 115.21492 2007 ft 178 kts 89°
2026-05-07 06:36 -8.74605 115.22818 2347 ft 199 kts 89°
2026-05-07 06:36 -8.74545 115.24296 2624 ft 223 kts 88°
2026-05-07 06:36 -8.74478 115.25941 2934 ft 246 kts 88°
2026-05-07 06:36 -8.74085 115.27668 3499 ft 260 kts 64°
2026-05-07 06:37 -8.72905 115.29068 4250 ft 268 kts 36°
2026-05-07 06:37 -8.71167 115.29707 5007 ft 276 kts
2026-05-07 06:37 -8.69210 115.29668 5801 ft 279 kts 359°
2026-05-07 06:37 -8.67272 115.29563 6608 ft 280 kts 358°
2026-05-07 06:38 -8.65347 115.29466 7340 ft 282 kts 359°
2026-05-07 06:38 -8.63370 115.29382 8017 ft 287 kts 359°
2026-05-07 06:38 -8.61367 115.29310 8795 ft 289 kts 359°
2026-05-07 06:38 -8.59345 115.29244 9495 ft 293 kts 359°
2026-05-07 06:39 -8.57296 115.29181 10161 ft 296 kts 359°
2026-05-07 06:39 -8.55170 115.29119 10397 ft 316 kts 359°
2026-05-07 06:39 -8.52896 115.29052 10517 ft 338 kts 359°
2026-05-07 06:39 -8.50515 115.28811 10836 ft 350 kts 346°
2026-05-07 06:40 -8.48253 115.27862 11339 ft 356 kts 327°
2026-05-07 06:40 -8.46382 115.26216 11874 ft 360 kts 314°
2026-05-07 06:40 -8.44662 115.24369 12438 ft 362 kts 313°
2026-05-07 06:40 -8.42944 115.22491 12991 ft 365 kts 312°
2026-05-07 06:41 -8.41222 115.20593 13545 ft 368 kts 312°
2026-05-07 06:41 -8.39480 115.18672 14034 ft 371 kts 312°
2026-05-07 06:41 -8.37734 115.16748 14518 ft 373 kts 312°
2026-05-07 06:41 -8.35973 115.14813 14994 ft 376 kts 312°
2026-05-07 06:42 -8.34195 115.12868 15462 ft 378 kts 312°
2026-05-07 06:42 -8.32430 115.10940 15894 ft 380 kts 312°
2026-05-07 06:42 -8.30628 115.08969 16360 ft 383 kts 312°
2026-05-07 06:42 -8.28811 115.06980 16826 ft 385 kts 312°
2026-05-07 06:43 -8.26990 115.04990 17272 ft 388 kts 312°
2026-05-07 06:43 -8.25152 115.02982 17757 ft 390 kts 312°
2026-05-07 06:43 -8.23302 115.00963 18202 ft 392 kts 312°
2026-05-07 06:43 -8.21444 114.98934 18588 ft 395 kts 312°
2026-05-07 06:44 -8.19572 114.96891 18978 ft 397 kts 312°
2026-05-07 06:44 -8.17690 114.94839 19356 ft 399 kts 312°
2026-05-07 06:44 -8.16441 114.93475 19607 ft 401 kts 312°
2026-05-07 06:44 -8.13922 114.90725 20105 ft 404 kts 312°
2026-05-07 06:45 -8.12008 114.88634 20482 ft 407 kts 312°
2026-05-07 06:45 -8.10084 114.86531 20861 ft 409 kts 312°
2026-05-07 06:45 -8.08147 114.84418 21239 ft 411 kts 312°
2026-05-07 06:45 -8.06198 114.82293 21600 ft 414 kts 312°
2026-05-07 06:46 -8.04899 114.80876 21837 ft 415 kts 311°
2026-05-07 06:46 -8.02935 114.78733 22188 ft 417 kts 311°
2026-05-07 06:46 -8.00956 114.76572 22536 ft 419 kts 311°
2026-05-07 06:46 -7.98971 114.74404 22876 ft 422 kts 311°
2026-05-07 06:47 -7.96978 114.72229 23218 ft 424 kts 311°
2026-05-07 06:47 -7.94968 114.70042 23519 ft 426 kts 312°
2026-05-07 06:47 -7.92948 114.67844 23789 ft 428 kts 311°
2026-05-07 06:47 -7.91129 114.65472 24049 ft 429 kts 301°
2026-05-07 06:48 -7.89750 114.62804 24312 ft 430 kts 291°
2026-05-07 06:48 -7.88846 114.59933 24574 ft 431 kts 284°
2026-05-07 06:48 -7.88089 114.57003 24836 ft 433 kts 284°
2026-05-07 06:48 -7.87322 114.54066 25103 ft 434 kts 284°
2026-05-07 06:49 -7.86544 114.51107 25369 ft 436 kts 284°
2026-05-07 06:49 -7.85760 114.48143 25628 ft 438 kts 284°
2026-05-07 06:49 -7.84969 114.45166 25907 ft 440 kts 284°
2026-05-07 06:49 -7.84178 114.42179 26158 ft 442 kts 284°
2026-05-07 06:50 -7.83389 114.39183 26407 ft 444 kts 283°
2026-05-07 06:50 -7.82598 114.36166 26656 ft 445 kts 283°
2026-05-07 06:50 -7.81806 114.33142 26913 ft 447 kts 283°
2026-05-07 06:50 -7.81007 114.30105 27162 ft 449 kts 283°
2026-05-07 06:51 -7.80202 114.27057 27402 ft 451 kts 283°
2026-05-07 06:51 -7.79392 114.23998 27645 ft 453 kts 283°
2026-05-07 06:51 -7.78577 114.20928 27889 ft 455 kts 283°
2026-05-07 06:51 -7.77767 114.17881 28123 ft 457 kts 283°
2026-05-07 06:52 -7.76946 114.14786 28375 ft 458 kts 283°
2026-05-07 06:52 -7.76120 114.11676 28673 ft 459 kts 284°
2026-05-07 06:52 -7.75080 114.08636 29026 ft 460 kts 292°
2026-05-07 06:52 -7.73567 114.05794 29385 ft 461 kts 301°
2026-05-07 06:53 -7.71812 114.03092 29733 ft 461 kts 302°
2026-05-07 06:53 -7.70048 114.00389 30068 ft 460 kts 302°
2026-05-07 06:53 -7.68288 113.97696 30387 ft 460 kts 302°
2026-05-07 06:53 -7.66531 113.95008 30717 ft 458 kts 302°
2026-05-07 06:54 -7.64782 113.92327 31053 ft 457 kts 302°
2026-05-07 06:54 -7.63041 113.89654 31394 ft 456 kts 302°
2026-05-07 06:54 -7.61303 113.86986 31730 ft 455 kts 302°
2026-05-07 06:54 -7.59565 113.84319 31834 ft 456 kts 302°
2026-05-07 06:55 -7.56086 113.78981 31846 ft 460 kts 302°
2026-05-07 06:55 -7.52574 113.73596 31846 ft 460 kts 302°
2026-05-07 06:56 -7.49057 113.68203 31847 ft 460 kts 302°
2026-05-07 06:56 -7.45542 113.62805 31845 ft 460 kts 302°
2026-05-07 06:57 -7.42023 113.57410 31842 ft 460 kts 302°
2026-05-07 06:57 -7.38501 113.52021 31835 ft 460 kts 302°
2026-05-07 06:58 -7.34979 113.46632 31838 ft 461 kts 302°
2026-05-07 06:58 -7.31452 113.41241 31837 ft 461 kts 302°
2026-05-07 06:59 -7.27955 113.35886 31837 ft 461 kts 302°
2026-05-07 06:59 -7.24432 113.30489 31832 ft 461 kts 302°
2026-05-07 07:00 -7.20899 113.25098 31840 ft 462 kts 302°
2026-05-07 07:00 -7.17363 113.19697 31835 ft 462 kts 302°
2026-05-07 07:01 -7.13833 113.14293 31838 ft 462 kts 302°
2026-05-07 07:01 -7.10302 113.08894 31844 ft 462 kts 302°
2026-05-07 07:02 -7.06752 113.03492 31838 ft 462 kts 302°
2026-05-07 07:02 -7.03215 112.98087 31838 ft 463 kts 302°
2026-05-07 07:03 -6.99672 112.92672 31845 ft 463 kts 302°
2026-05-07 07:03 -6.96121 112.87262 31845 ft 463 kts 302°
2026-05-07 07:04 -6.92599 112.81890 31839 ft 463 kts 302°
2026-05-07 07:04 -6.89054 112.76478 31833 ft 463 kts 302°
2026-05-07 07:05 -6.85505 112.71065 31841 ft 463 kts 302°
2026-05-07 07:05 -6.82892 112.65234 31833 ft 458 kts 280°
2026-05-07 07:06 -6.81615 112.58949 31831 ft 459 kts 280°
2026-05-07 07:06 -6.80359 112.52654 31825 ft 459 kts 280°
2026-05-07 07:07 -6.79097 112.46359 31828 ft 459 kts 280°
2026-05-07 07:07 -6.77824 112.40098 31829 ft 460 kts 280°
2026-05-07 07:08 -6.76538 112.33796 31833 ft 460 kts 280°
2026-05-07 07:08 -6.75259 112.27488 31832 ft 460 kts 280°
2026-05-07 07:09 -6.73981 112.21171 31835 ft 461 kts 280°
2026-05-07 07:09 -6.72705 112.14853 31841 ft 461 kts 280°
2026-05-07 07:10 -6.71419 112.08530 31834 ft 461 kts 280°
2026-05-07 07:10 -6.70130 112.02214 31843 ft 461 kts 280°
2026-05-07 07:11 -6.68846 111.95895 31845 ft 461 kts 280°
2026-05-07 07:11 -6.67557 111.89567 31838 ft 461 kts 280°
2026-05-07 07:12 -6.66274 111.83289 31845 ft 462 kts 280°
2026-05-07 07:12 -6.64978 111.76960 31844 ft 461 kts 280°
2026-05-07 07:13 -6.63690 111.70637 31846 ft 462 kts 280°
2026-05-07 07:13 -6.63045 111.67468 31450 ft 461 kts 280°
2026-05-07 07:13 -6.62501 111.64294 30859 ft 459 kts 274°
2026-05-07 07:14 -6.62454 111.61107 30308 ft 454 kts 264°
2026-05-07 07:14 -6.62930 111.57983 29717 ft 451 kts 254°
2026-05-07 07:14 -6.63815 111.54975 29141 ft 447 kts 251°
2026-05-07 07:14 -6.64725 111.52002 28602 ft 443 kts 251°
2026-05-07 07:15 -6.65620 111.49044 28052 ft 440 kts 252°
2026-05-07 07:15 -6.66492 111.46143 27515 ft 437 kts 252°
2026-05-07 07:15 -6.67364 111.43229 26976 ft 434 kts 252°
2026-05-07 07:15 -6.68231 111.40329 26455 ft 431 kts 252°
2026-05-07 07:16 -6.69094 111.37454 25938 ft 428 kts 252°
2026-05-07 07:16 -6.69959 111.34593 25427 ft 426 kts 252°
2026-05-07 07:16 -6.70822 111.31750 24937 ft 423 kts 252°
2026-05-07 07:16 -6.71676 111.28925 24450 ft 421 kts 252°
2026-05-07 07:17 -6.72525 111.26110 23978 ft 419 kts 253°
2026-05-07 07:17 -6.73369 111.23305 23511 ft 417 kts 253°
2026-05-07 07:17 -6.74210 111.20514 22992 ft 416 kts 253°
2026-05-07 07:17 -6.75043 111.17740 22537 ft 412 kts 253°
2026-05-07 07:18 -6.75866 111.14996 22081 ft 408 kts 253°
2026-05-07 07:18 -6.76683 111.12272 21619 ft 405 kts 253°
2026-05-07 07:18 -6.77497 111.09567 21150 ft 402 kts 253°
2026-05-07 07:18 -6.78294 111.06916 20677 ft 400 kts 253°
2026-05-07 07:19 -6.79101 111.04241 20188 ft 398 kts 253°
2026-05-07 07:19 -6.79904 111.01583 19702 ft 396 kts 253°
2026-05-07 07:19 -6.80701 110.98937 19218 ft 394 kts 253°
2026-05-07 07:19 -6.81493 110.96302 18710 ft 393 kts 253°
2026-05-07 07:20 -6.82287 110.93664 18205 ft 392 kts 252°
2026-05-07 07:20 -6.83079 110.91041 17651 ft 391 kts 252°
2026-05-07 07:20 -6.83865 110.88433 17145 ft 388 kts 252°
2026-05-07 07:20 -6.84569 110.85821 16635 ft 385 kts 259°
2026-05-07 07:21 -6.85041 110.83215 16146 ft 382 kts 259°
2026-05-07 07:21 -6.85518 110.80593 15636 ft 380 kts 259°
2026-05-07 07:21 -6.85994 110.77987 15126 ft 378 kts 259°
2026-05-07 07:21 -6.86469 110.75391 14630 ft 376 kts 259°
2026-05-07 07:22 -6.86943 110.72809 14128 ft 375 kts 259°
2026-05-07 07:22 -6.87417 110.70235 13623 ft 373 kts 259°
2026-05-07 07:22 -6.87890 110.67671 13082 ft 371 kts 259°
2026-05-07 07:22 -6.88349 110.65174 12594 ft 369 kts 259°
2026-05-07 07:23 -6.88743 110.63028 12350 ft 361 kts 259°
2026-05-07 07:23 -6.89197 110.60556 11911 ft 358 kts 259°
2026-05-07 07:23 -6.89573 110.58085 11430 ft 357 kts 267°
2026-05-07 07:23 -6.89409 110.55607 10956 ft 355 kts 282°
2026-05-07 07:24 -6.88638 110.53268 10479 ft 352 kts 297°
2026-05-07 07:24 -6.87445 110.51164 10298 ft 336 kts 302°
2026-05-07 07:24 -6.86325 110.49219 10167 ft 318 kts 301°
2026-05-07 07:24 -6.85241 110.47318 10026 ft 309 kts 301°
2026-05-07 07:25 -6.83084 110.43604 9342 ft 303 kts 302°
2026-05-07 07:25 -6.82012 110.41781 8712 ft 302 kts 302°
2026-05-07 07:25 -6.80943 110.39969 8091 ft 301 kts 302°
2026-05-07 07:26 -6.79880 110.38165 7555 ft 298 kts 301°
2026-05-07 07:26 -6.78817 110.36359 7124 ft 299 kts 301°
2026-05-07 07:26 -6.77768 110.34576 6740 ft 294 kts 301°
2026-05-07 07:26 -6.76732 110.32814 6172 ft 294 kts 301°
2026-05-07 07:27 -6.75917 110.30935 5582 ft 292 kts 281°
2026-05-07 07:27 -6.75938 110.28923 5022 ft 288 kts 254°
2026-05-07 07:27 -6.76791 110.27126 4383 ft 289 kts 227°
2026-05-07 07:27 -6.78238 110.25806 4050 ft 280 kts 217°
2026-05-07 07:28 -6.79727 110.24555 3597 ft 275 kts 217°
2026-05-07 07:28 -6.81143 110.23347 3409 ft 258 kts 216°
2026-05-07 07:28 -6.82668 110.22582 3282 ft 239 kts 186°
2026-05-07 07:28 -6.84244 110.22742 3163 ft 223 kts 154°
2026-05-07 07:29 -6.85429 110.23634 3045 ft 207 kts 129°
2026-05-07 07:29 -6.86368 110.24698 2893 ft 199 kts 130°
2026-05-07 07:29 -6.87272 110.25730 2619 ft 194 kts 129°
2026-05-07 07:29 -6.88134 110.26740 2361 ft 187 kts 129°
2026-05-07 07:30 -6.88955 110.27709 2132 ft 174 kts 128°
2026-05-07 07:30 -6.89708 110.28600 1914 ft 160 kts 128°
2026-05-07 07:30 -6.90395 110.29413 1721 ft 148 kts 128°
2026-05-07 07:30 -6.91053 110.30193 1539 ft 146 kts 128°
2026-05-07 07:31 -6.91709 110.30971 1348 ft 146 kts 128°
2026-05-07 07:31 -6.92369 110.31756 1177 ft 147 kts 128°
2026-05-07 07:31 -6.93032 110.32546 958 ft 148 kts 127°
2026-05-07 07:31 -6.93686 110.33317 788 ft 143 kts 127°
2026-05-07 07:32 -6.94344 110.34056 640 ft 142 kts 130°
2026-05-07 07:32 -6.94969 110.34830 473 ft 143 kts 124°
2026-05-07 07:32 -6.95605 110.35585 329 ft 138 kts 128°
2026-05-07 07:32 -6.96234 110.36355 470 ft 152 kts 129°
2026-05-07 07:33 -6.96939 110.37219 1122 ft 169 kts 127°
2026-05-07 07:33 -6.97724 110.38192 1770 ft 186 kts 127°
2026-05-07 07:33 -6.98256 110.39355 2231 ft 189 kts 92°
2026-05-07 07:33 -6.97927 110.40656 2623 ft 203 kts 59°
2026-05-07 07:34 -6.96806 110.41602 2955 ft 225 kts 22°
2026-05-07 07:34 -6.95247 110.41665 3023 ft 232 kts 342°
2026-05-07 07:34 -6.93961 110.40694 3031 ft 237 kts 308°
2026-05-07 07:34 -6.93069 110.39294 3033 ft 239 kts 300°
2026-05-07 07:35 -6.92140 110.37937 3030 ft 238 kts 310°
2026-05-07 07:35 -6.91032 110.36700 3032 ft 238 kts 315°
2026-05-07 07:35 -6.89861 110.35481 3037 ft 245 kts 315°
2026-05-07 07:35 -6.88652 110.34269 3035 ft 246 kts 319°
2026-05-07 07:36 -6.87372 110.33127 3034 ft 246 kts 320°
2026-05-07 07:36 -6.86126 110.31942 3035 ft 248 kts 314°
2026-05-07 07:36 -6.84983 110.30644 3038 ft 248 kts 311°
2026-05-07 07:36 -6.83856 110.29331 3035 ft 248 kts 311°
2026-05-07 07:37 -6.82730 110.28018 3038 ft 248 kts 311°
2026-05-07 07:37 -6.81625 110.26730 3035 ft 240 kts 311°
2026-05-07 07:37 -6.80568 110.25442 3038 ft 234 kts 302°
2026-05-07 07:37 -6.80168 110.23919 2854 ft 226 kts 260°
2026-05-07 07:38 -6.80840 110.22574 2644 ft 213 kts 215°
2026-05-07 07:38 -6.82167 110.22118 2558 ft 202 kts 174°
2026-05-07 07:38 -6.83557 110.22273 2537 ft 201 kts 163°
2026-05-07 07:38 -6.84737 110.22950 2536 ft 196 kts 133°
2026-05-07 07:39 -6.85671 110.23956 2540 ft 197 kts 132°
2026-05-07 07:39 -6.86597 110.24950 2540 ft 197 kts 132°
2026-05-07 07:39 -6.87500 110.25972 2488 ft 192 kts 129°
2026-05-07 07:39 -6.88333 110.26966 2298 ft 179 kts 129°
2026-05-07 07:40 -6.89107 110.27886 2078 ft 165 kts 129°
2026-05-07 07:40 -6.89825 110.28737 1892 ft 151 kts 129°
2026-05-07 07:40 -6.90273 110.29268 1759 ft 149 kts 129°
2026-05-07 07:40 -6.90940 110.30060 1566 ft 147 kts 128°
2026-05-07 07:41 -6.91606 110.30846 1364 ft 148 kts 129°
2026-05-07 07:41 -6.92268 110.31633 1210 ft 147 kts 128°
2026-05-07 07:41 -6.92942 110.32437 970 ft 157 kts 126°
2026-05-07 07:41 -6.93655 110.33263 777 ft 155 kts 128°
2026-05-07 07:42 -6.94353 110.34078 613 ft 154 kts 127°
2026-05-07 07:42 -6.95042 110.34897 416 ft 152 kts 127°
2026-05-07 07:42 -6.95697 110.35711 211 ft 151 kts 127°
2026-05-07 07:42 -6.96370 110.36503 24 ft 147 kts 128°
2026-05-07 07:43 -6.96951 110.37192 5 ft 107 kts 130°
2026-05-07 07:43 -6.97321 110.37630 5 ft 59 kts 130°
2026-05-07 07:43 -6.97547 110.37897 6 ft 43 kts 130°
2026-05-07 07:43 -6.97659 110.38030 6 ft 9 kts 130°
2026-05-07 07:44 -6.97682 110.38090 8 ft 6 kts 99°
2026-05-07 07:44 -6.97700 110.38085 6 ft 6 kts 277°
2026-05-07 07:44 -6.97666 110.38037 6 ft 11 kts 311°
2026-05-07 07:44 -6.97601 110.37962 6 ft 17 kts 310°
2026-05-07 07:45 -6.97516 110.37860 7 ft 21 kts 310°
2026-05-07 07:45 -6.97419 110.37745 6 ft 23 kts 310°
2026-05-07 07:45 -6.97309 110.37616 5 ft 25 kts 310°
2026-05-07 07:45 -6.97189 110.37476 4 ft 27 kts 310°
2026-05-07 07:46 -6.97120 110.37413 4 ft 9 kts 357°
2026-05-07 07:46 -6.97070 110.37442 9 ft 6 kts 40°
2026-05-07 07:46 -6.97049 110.37460 12 ft 4 kts 40°
2026-05-07 07:46 -6.97012 110.37491 16 ft 9 kts 39°
2026-05-07 07:47 -6.96967 110.37528 18 ft 9 kts 39°
2026-05-07 07:47 -6.96915 110.37563 18 ft 9 kts
2026-05-07 07:47 -6.96868 110.37517 18 ft 10 kts 310°
2026-05-07 07:47 -6.96820 110.37523 19 ft 8 kts 40°
2026-05-07 07:48 -6.96789 110.37548 19 ft 0 kts 40°